Regional Weather Roundup
Issued by NWS

Home | Current Version | Previous Version | Graphics & Text | Print | Product List | Glossary On
Versions: 1 2 3 4 5 6 7 8 9 10 11 12 13 14 15 16 17 18 19 20 21 22 23 24 25 26 27 28 29 30 31 32 33 34 35 36 37 38 39 40 41 42 43 44 45 46 47 48 49
000
ASUS45 KCYS 150810
RWRWY

WYOMING REGIONAL WEATHER ROUNDUP
NATIONAL WEATHER SERVICE CHEYENNE WY
200 AM MDT MON SEP 15 2014

NOTE:  "FAIR" INDICATES FEW OR NO CLOUDS BELOW 12,000 FEET
WITH NO SIGNIFICANT WEATHER AND/OR OBSTRUCTIONS TO VISIBILITY.

WYZ001-150900-
YELLOWSTONE NATIONAL PARK

CITY           SKY/WX    TMP DP  RH WIND       PRES   REMARKS
LK YELLOWSTONE   N/A     31  26  82 NW3       30.33R
W YELLOWSTONE  NOT AVBL

$$
WYZ002>013-054>058-071-098>099-150900-
NORTHERN WYOMING

CITY           SKY/WX    TMP DP  RH WIND       PRES   REMARKS
JACKSON        CLEAR     39  28  65 N3        30.25R
CODY           CLEAR     45  39  81 S3        30.25S
GREYBULL       CLEAR     47  39  74 S3        30.22R
WORLAND        CLEAR     45  39  79 S6        30.23R
SHERIDAN       CLEAR     40  35  83 S3        30.24S
BUFFALO        CLEAR     42  35  76 NW6       30.27S
GILLETTE       CLEAR     36  35  96 CALM      30.25S
HULETT         FAIR      37  34  87 MISG      30.25
NEWCASTLE      FAIR      37  37 100 N3        30.27

$$
WYZ014>020-022>026-101>103-150900-
CENTRAL WYOMING

CITY           SKY/WX    TMP DP  RH WIND       PRES   REMARKS
BIG PINEY      CLEAR     39  23  52 N6        30.29R WCI  35
PINEDALE       SUNNY     32  27  80 NW5       30.30R WCI  27
DUBOIS         FAIR      41  28  60 W3        30.33R
LANDER         CLEAR     48  35  60 W9        30.26R
RIVERTON       CLEAR     47  34  60 NE7       30.27R
CASPER         CLEAR     40  36  86 CALM      30.28R
DOUGLAS        CLEAR     40  38  93 CALM      30.28R

$$
WYZ021-027>030-104>119-150900-
SOUTHERN WYOMING

CITY           SKY/WX    TMP DP  RH WIND       PRES   REMARKS
EVANSTON       MOCLDY    55  33  43 S8        30.27R
KEMMERER       MOSUNNY   46  30  53 NW10      30.29R
FORT BRIDGER   FAIR      56  32  40 S9        30.29S
ROCK SPRINGS   CLEAR     50  30  46 E13       30.28R
DIXON          FAIR      46  37  69 NE5       30.28R
RAWLINS        CLEAR     43  35  73 NE7       30.29R
SARATOGA       FAIR      43  34  70 W7        30.29R
LARAMIE        CLEAR     42  40  92 W3        30.29R
CHEYENNE       CLEAR     45  42  89 NW7       30.27R
TORRINGTON     CLEAR     42  39  89 CALM      30.25R
PINE BLUFFS    FAIR      41  41 100 N7        30.24R

$$



USA.gov is the U.S. government's official web portal to all federal, state and local government web resources and services.